Year,Month,Day,Hour,Minute,Value (Times are PST for temperature in C)
2010,09,30,07,57,9.30
2010,09,30,07,58,9.30
2010,09,30,07,59,9.40
2010,09,30,08,00,9.40
2010,09,30,08,01,9.40
2010,09,30,08,02,9.40
2010,09,30,08,03,9.40
2010,09,30,08,04,9.50
2010,09,30,08,05,9.50
2010,09,30,08,06,9.60
2010,09,30,08,07,9.60
2010,09,30,08,08,9.60
2010,09,30,08,09,9.60
2010,09,30,08,10,9.70
2010,09,30,08,11,9.70
2010,09,30,08,12,9.70
2010,09,30,08,13,9.70
2010,09,30,08,14,9.80
2010,09,30,08,15,9.90
2010,09,30,08,16,9.90
2010,09,30,08,17,9.90
2010,09,30,08,18,10.00
2010,09,30,08,19,10.10
2010,09,30,08,20,10.20
2010,09,30,08,21,10.30
2010,09,30,08,22,10.40
2010,09,30,08,23,10.40
2010,09,30,08,24,10.50
2010,09,30,08,25,10.60
2010,09,30,08,26,10.60
2010,09,30,08,27,10.60
2010,09,30,08,28,10.70
2010,09,30,08,29,10.70
2010,09,30,08,30,10.70
2010,09,30,08,31,10.80
2010,09,30,08,32,10.80
2010,09,30,08,33,10.80
2010,09,30,08,34,10.80
2010,09,30,08,35,10.90
2010,09,30,08,36,10.90
2010,09,30,08,37,10.90
2010,09,30,08,38,11.00
2010,09,30,08,39,11.00
2010,09,30,08,40,11.00
2010,09,30,08,41,11.10
2010,09,30,08,42,11.20
2010,09,30,08,43,11.20
2010,09,30,08,44,11.20
2010,09,30,08,45,11.30
2010,09,30,08,46,11.30
2010,09,30,08,47,11.40
2010,09,30,08,48,11.50
2010,09,30,08,49,11.50
2010,09,30,08,50,11.60
2010,09,30,08,51,11.60
2010,09,30,08,52,11.60
2010,09,30,08,53,11.70
2010,09,30,08,54,11.80
2010,09,30,08,55,11.80
2010,09,30,08,56,11.90
2010,09,30,08,57,11.90
2010,09,30,08,58,12.00
2010,09,30,08,59,12.00
2010,09,30,09,00,12.10
2010,09,30,09,01,12.10
2010,09,30,09,02,12.20
2010,09,30,09,03,12.20
2010,09,30,09,04,12.20
2010,09,30,09,05,12.20
2010,09,30,09,06,12.30
2010,09,30,09,07,12.30
2010,09,30,09,08,12.30
2010,09,30,09,09,12.30
2010,09,30,09,10,12.40
2010,09,30,09,11,12.40
2010,09,30,09,12,12.40
2010,09,30,09,13,12.50
2010,09,30,09,14,12.60
2010,09,30,09,15,12.70
2010,09,30,09,16,12.70
2010,09,30,09,17,12.80
2010,09,30,09,18,12.80
2010,09,30,09,19,12.90
2010,09,30,09,20,13.00
2010,09,30,09,21,13.00
2010,09,30,09,22,13.00
2010,09,30,09,23,13.10
2010,09,30,09,24,13.10
2010,09,30,09,25,13.10
2010,09,30,09,26,13.20
2010,09,30,09,27,13.20
2010,09,30,09,28,13.20
2010,09,30,09,29,13.30
2010,09,30,09,30,13.30
2010,09,30,09,31,13.30
2010,09,30,09,32,13.30
2010,09,30,09,33,13.40
2010,09,30,09,34,13.40
2010,09,30,09,35,13.40
2010,09,30,09,36,13.40
2010,09,30,09,37,13.50
2010,09,30,09,38,13.50
2010,09,30,09,39,13.50
2010,09,30,09,40,13.60
2010,09,30,09,41,13.60
2010,09,30,09,42,13.70
2010,09,30,09,43,13.80
2010,09,30,09,44,13.90
2010,09,30,09,45,14.00
2010,09,30,09,46,14.10
2010,09,30,09,47,14.20
2010,09,30,09,48,14.20
2010,09,30,09,49,14.30
2010,09,30,09,50,14.30
2010,09,30,09,51,14.40
2010,09,30,09,52,14.50
2010,09,30,09,53,14.60
2010,09,30,09,54,14.60
2010,09,30,09,55,14.70
2010,09,30,09,56,14.70
2010,09,30,09,57,14.80
2010,09,30,09,58,14.80
2010,09,30,09,59,15.00
2010,09,30,10,00,15.00
2010,09,30,10,01,15.00
2010,09,30,10,02,15.00
2010,09,30,10,03,15.00
2010,09,30,10,04,15.00
2010,09,30,10,05,15.10
2010,09,30,10,06,15.10
2010,09,30,10,07,15.20
2010,09,30,10,08,15.20
2010,09,30,10,09,15.20
2010,09,30,10,10,15.30
2010,09,30,10,11,15.30
2010,09,30,10,12,15.30
2010,09,30,10,13,15.40
2010,09,30,10,14,15.40
2010,09,30,10,15,15.40
2010,09,30,10,16,15.50
2010,09,30,10,17,15.50
2010,09,30,10,18,15.60
2010,09,30,10,19,15.60
2010,09,30,10,20,15.70
2010,09,30,10,21,15.80
2010,09,30,10,22,15.80
2010,09,30,10,23,15.80
2010,09,30,10,24,15.80
2010,09,30,10,25,15.80
2010,09,30,10,26,15.80
2010,09,30,10,27,15.80
2010,09,30,10,28,15.80
2010,09,30,10,29,15.80
2010,09,30,10,30,15.90
2010,09,30,10,31,15.90
2010,09,30,10,32,15.90
2010,09,30,10,33,16.00
2010,09,30,10,34,16.00
2010,09,30,10,35,15.90
2010,09,30,10,36,15.90
2010,09,30,10,37,15.80
2010,09,30,10,38,15.80
2010,09,30,10,39,15.80
2010,09,30,10,40,15.80
2010,09,30,10,41,15.80
2010,09,30,10,42,15.70
2010,09,30,10,43,15.70
2010,09,30,10,44,15.60
2010,09,30,10,45,15.70
2010,09,30,10,46,15.70
2010,09,30,10,47,15.70
2010,09,30,10,48,15.70
2010,09,30,10,49,15.70
2010,09,30,10,50,15.70
2010,09,30,10,51,15.70
2010,09,30,10,52,15.70
2010,09,30,10,53,15.70
2010,09,30,10,54,15.70
2010,09,30,10,55,15.70
2010,09,30,10,56,15.60
2010,09,30,10,57,15.60
2010,09,30,10,58,15.60
2010,09,30,10,59,15.60
2010,09,30,11,00,15.60
2010,09,30,11,01,15.60
2010,09,30,11,02,15.60
2010,09,30,11,03,15.60
2010,09,30,11,04,15.60
2010,09,30,11,05,15.60
2010,09,30,11,06,15.70
2010,09,30,11,07,15.70
2010,09,30,11,08,15.70
2010,09,30,11,09,15.70
2010,09,30,11,10,15.70
2010,09,30,11,11,15.70
2010,09,30,11,12,15.80
2010,09,30,11,13,15.80
2010,09,30,11,14,15.80
2010,09,30,11,15,15.80
2010,09,30,11,16,15.80
2010,09,30,11,17,15.80
2010,09,30,11,18,15.90
2010,09,30,11,19,16.00
2010,09,30,11,20,16.00
2010,09,30,11,21,16.00
2010,09,30,11,22,16.00
2010,09,30,11,23,16.10
2010,09,30,11,24,16.10
2010,09,30,11,25,16.10
2010,09,30,11,26,16.10
2010,09,30,11,27,16.20
2010,09,30,11,28,16.10
2010,09,30,11,29,16.10
2010,09,30,11,30,16.20
2010,09,30,11,31,16.20
2010,09,30,11,32,16.20
2010,09,30,11,33,16.20
2010,09,30,11,34,16.20
2010,09,30,11,35,16.20
2010,09,30,11,36,16.20
2010,09,30,11,37,16.20
2010,09,30,11,38,16.20
2010,09,30,11,39,16.20
2010,09,30,11,40,16.20
2010,09,30,11,41,16.30
2010,09,30,11,42,16.30
2010,09,30,11,43,16.30
2010,09,30,11,44,16.30
2010,09,30,11,45,16.40
2010,09,30,11,46,16.40
2010,09,30,11,47,16.50
2010,09,30,11,48,16.50
2010,09,30,11,49,16.50
2010,09,30,11,50,16.40
2010,09,30,11,51,16.40
2010,09,30,11,52,16.40
2010,09,30,11,53,16.40
2010,09,30,11,54,16.50
2010,09,30,11,55,16.50
2010,09,30,11,56,16.50
2010,09,30,11,57,16.50
2010,09,30,11,58,16.50
2010,09,30,11,59,16.50
2010,09,30,12,00,16.40
2010,09,30,12,01,16.40
2010,09,30,12,02,16.40
2010,09,30,12,03,16.40
2010,09,30,12,04,16.50
2010,09,30,12,05,16.50
2010,09,30,12,06,16.60
2010,09,30,12,07,16.60
2010,09,30,12,08,16.60
2010,09,30,12,09,16.60
2010,09,30,12,10,16.60
2010,09,30,12,11,16.60
2010,09,30,12,12,16.70
2010,09,30,12,13,16.70
2010,09,30,12,14,16.70
2010,09,30,12,15,16.70
2010,09,30,12,16,16.70
2010,09,30,12,17,16.70
2010,09,30,12,18,16.70
2010,09,30,12,19,16.70
2010,09,30,12,20,16.70
2010,09,30,12,21,16.80
2010,09,30,12,22,16.80
2010,09,30,12,23,16.80
2010,09,30,12,24,16.80
2010,09,30,12,25,16.80
2010,09,30,12,26,16.80
2010,09,30,12,27,16.80
2010,09,30,12,28,16.80
2010,09,30,12,29,16.80
2010,09,30,12,30,16.80
2010,09,30,12,31,16.80
2010,09,30,12,32,16.80
2010,09,30,12,33,16.90
2010,09,30,12,34,17.00
2010,09,30,12,35,17.10
2010,09,30,12,36,17.10
2010,09,30,12,37,17.10
2010,09,30,12,38,17.10
2010,09,30,12,39,17.10
2010,09,30,12,40,17.20
2010,09,30,12,41,17.20
2010,09,30,12,42,17.20
2010,09,30,12,43,17.30
2010,09,30,12,44,17.30
2010,09,30,12,45,17.30
2010,09,30,12,46,17.30
2010,09,30,12,47,17.30
2010,09,30,12,48,17.40
2010,09,30,12,49,17.50
2010,09,30,12,50,17.50
2010,09,30,12,51,17.50
2010,09,30,12,52,17.60
2010,09,30,12,53,17.60
2010,09,30,12,54,17.70
2010,09,30,12,55,17.80
2010,09,30,12,56,17.80
2010,09,30,12,57,17.70
2010,09,30,12,58,17.80
2010,09,30,12,59,17.80
2010,09,30,13,00,17.80
2010,09,30,13,01,17.80
2010,09,30,13,02,17.80
2010,09,30,13,03,17.80
2010,09,30,13,04,17.80
2010,09,30,13,05,17.80
2010,09,30,13,06,17.80
2010,09,30,13,07,17.90
2010,09,30,13,08,17.90
2010,09,30,13,09,18.00
2010,09,30,13,10,18.00
2010,09,30,13,11,18.10
2010,09,30,13,12,18.10
2010,09,30,13,13,18.10
2010,09,30,13,14,18.10
2010,09,30,13,15,18.10
2010,09,30,13,16,18.10
2010,09,30,13,17,18.20
2010,09,30,13,18,18.20
2010,09,30,13,19,18.20
2010,09,30,13,20,18.20
2010,09,30,13,21,18.20
2010,09,30,13,22,18.20
2010,09,30,13,23,18.20
2010,09,30,13,24,18.10
2010,09,30,13,25,18.10
2010,09,30,13,26,18.10
2010,09,30,13,27,18.10
2010,09,30,13,28,18.20
2010,09,30,13,29,18.20
2010,09,30,13,30,18.20
2010,09,30,13,31,18.20
2010,09,30,13,32,18.20
2010,09,30,13,33,18.30
2010,09,30,13,34,18.30
2010,09,30,13,35,18.40
2010,09,30,13,36,18.40
2010,09,30,13,37,18.40
2010,09,30,13,38,18.40
2010,09,30,13,39,18.40
2010,09,30,13,40,18.40
2010,09,30,13,41,18.40
2010,09,30,13,42,18.40
2010,09,30,13,43,18.40
2010,09,30,13,44,18.40
2010,09,30,13,45,18.40
2010,09,30,13,46,18.40
2010,09,30,13,47,18.40
2010,09,30,13,48,18.50
2010,09,30,13,49,18.60
2010,09,30,13,50,18.70
2010,09,30,13,51,18.60
2010,09,30,13,52,18.50
2010,09,30,13,53,18.40
2010,09,30,13,54,18.40
2010,09,30,13,55,18.40
2010,09,30,13,56,18.30
2010,09,30,13,57,18.30
2010,09,30,13,58,18.30
2010,09,30,13,59,18.20
2010,09,30,14,00,18.20
2010,09,30,14,01,18.10
2010,09,30,14,02,18.10
2010,09,30,14,03,18.10
2010,09,30,14,04,18.10
2010,09,30,14,05,18.10
2010,09,30,14,06,18.10
2010,09,30,14,07,18.00
2010,09,30,14,08,18.00
2010,09,30,14,09,17.90
2010,09,30,14,10,18.00
2010,09,30,14,11,18.00
2010,09,30,14,12,18.00
2010,09,30,14,13,18.10
2010,09,30,14,14,18.20
2010,09,30,14,15,18.30
2010,09,30,14,16,18.40
2010,09,30,14,17,18.60
2010,09,30,14,18,18.70
2010,09,30,14,19,18.70
2010,09,30,14,20,18.70
2010,09,30,14,21,18.70
2010,09,30,14,22,18.80
2010,09,30,14,23,18.80
2010,09,30,14,24,18.80
2010,09,30,14,25,18.70
2010,09,30,14,26,18.50
2010,09,30,14,27,18.40
2010,09,30,14,28,18.40
2010,09,30,14,29,18.30
2010,09,30,14,30,18.30
2010,09,30,14,31,18.30
2010,09,30,14,32,18.30
2010,09,30,14,33,18.30
2010,09,30,14,34,18.30
2010,09,30,14,35,18.30
2010,09,30,14,36,18.40
2010,09,30,14,37,18.40
2010,09,30,14,38,18.40
2010,09,30,14,39,18.40
2010,09,30,14,40,18.40
2010,09,30,14,41,18.40
2010,09,30,14,42,18.40
2010,09,30,14,43,18.40
2010,09,30,14,44,18.40
2010,09,30,14,45,18.40
2010,09,30,14,46,18.50
2010,09,30,14,47,18.60
2010,09,30,14,48,18.70
2010,09,30,14,49,18.70
2010,09,30,14,50,18.80
2010,09,30,14,51,18.80
2010,09,30,14,52,18.80
2010,09,30,14,53,18.80
2010,09,30,14,54,18.80
2010,09,30,14,55,18.80
2010,09,30,14,56,18.70
2010,09,30,14,57,18.70
2010,09,30,14,58,18.70
2010,09,30,14,59,18.70
2010,09,30,15,00,18.70
2010,09,30,15,01,18.70
2010,09,30,15,02,18.70
2010,09,30,15,03,18.80
2010,09,30,15,04,18.80
2010,09,30,15,05,18.80
2010,09,30,15,06,18.80
2010,09,30,15,07,18.70
2010,09,30,15,08,18.70
2010,09,30,15,09,18.70
2010,09,30,15,10,18.70
2010,09,30,15,11,18.70
2010,09,30,15,12,18.60
2010,09,30,15,13,18.60
2010,09,30,15,14,18.60
2010,09,30,15,15,18.70
2010,09,30,15,16,18.70
2010,09,30,15,17,18.70
2010,09,30,15,18,18.80
2010,09,30,15,19,18.80
2010,09,30,15,20,18.80
2010,09,30,15,21,18.80
2010,09,30,15,22,18.80
2010,09,30,15,23,18.80
2010,09,30,15,24,18.70
2010,09,30,15,25,18.80
2010,09,30,15,26,18.80
2010,09,30,15,27,18.90
2010,09,30,15,28,18.90
2010,09,30,15,29,18.90
2010,09,30,15,30,18.90
2010,09,30,15,31,18.80
2010,09,30,15,32,18.80
2010,09,30,15,33,18.80
2010,09,30,15,34,18.80
2010,09,30,15,35,18.90
2010,09,30,15,36,18.90
2010,09,30,15,37,18.90
2010,09,30,15,38,18.90
2010,09,30,15,39,18.80
2010,09,30,15,40,18.80
2010,09,30,15,41,18.80
2010,09,30,15,42,18.80
2010,09,30,15,43,18.90
2010,09,30,15,44,18.90
2010,09,30,15,45,18.90
2010,09,30,15,46,18.90
2010,09,30,15,47,18.90
2010,09,30,15,48,18.90
2010,09,30,15,49,18.90
2010,09,30,15,50,18.90
2010,09,30,15,51,18.90
2010,09,30,15,52,19.00
2010,09,30,15,53,19.10
2010,09,30,15,54,19.20
2010,09,30,15,55,19.10
2010,09,30,15,56,19.00
2010,09,30,15,57,19.00
2010,09,30,15,58,18.90
2010,09,30,15,59,18.90
2010,09,30,16,00,18.80
2010,09,30,16,01,18.80
2010,09,30,16,02,18.80
2010,09,30,16,03,18.80
2010,09,30,16,04,18.80
2010,09,30,16,05,18.80
2010,09,30,16,06,18.80
2010,09,30,16,07,18.80
2010,09,30,16,08,18.90
2010,09,30,16,09,18.90
2010,09,30,16,10,18.90
2010,09,30,16,11,18.90
2010,09,30,16,12,18.90
2010,09,30,16,13,18.90
2010,09,30,16,14,18.90
2010,09,30,16,15,19.00
2010,09,30,16,16,19.10
2010,09,30,16,17,19.10
2010,09,30,16,18,19.10
2010,09,30,16,19,19.10
2010,09,30,16,20,19.10
2010,09,30,16,21,19.10
2010,09,30,16,22,19.10
2010,09,30,16,23,19.10
2010,09,30,16,24,19.00
2010,09,30,16,25,19.00
2010,09,30,16,26,18.90
2010,09,30,16,27,18.90
2010,09,30,16,28,18.90
2010,09,30,16,29,18.90
2010,09,30,16,30,18.90
2010,09,30,16,31,18.90
2010,09,30,16,32,18.80
2010,09,30,16,33,18.80
2010,09,30,16,34,18.80
2010,09,30,16,35,18.80
2010,09,30,16,36,18.80
2010,09,30,16,37,18.80
2010,09,30,16,38,18.80
2010,09,30,16,39,18.90
2010,09,30,16,40,18.90
2010,09,30,16,41,18.90
2010,09,30,16,42,18.90
2010,09,30,16,43,19.00
2010,09,30,16,44,19.10
2010,09,30,16,45,19.10
2010,09,30,16,46,19.10
2010,09,30,16,47,19.20
2010,09,30,16,48,19.20
2010,09,30,16,49,19.30
2010,09,30,16,50,19.20
2010,09,30,16,51,19.30
2010,09,30,16,52,19.30
2010,09,30,16,53,19.30
2010,09,30,16,54,19.30
2010,09,30,16,55,19.20
2010,09,30,16,56,19.20
2010,09,30,16,57,19.10
2010,09,30,16,58,19.10
2010,09,30,16,59,19.00
2010,09,30,17,00,18.90
2010,09,30,17,01,18.90
2010,09,30,17,02,18.80
2010,09,30,17,03,18.80
2010,09,30,17,04,18.90
2010,09,30,17,05,18.90
2010,09,30,17,06,19.00
2010,09,30,17,07,19.00
2010,09,30,17,08,19.10
2010,09,30,17,09,19.10
2010,09,30,17,10,19.10
2010,09,30,17,11,19.10
2010,09,30,17,12,19.10
2010,09,30,17,13,19.20
2010,09,30,17,14,19.20
2010,09,30,17,15,19.20
2010,09,30,17,16,19.30
2010,09,30,17,17,19.30
2010,09,30,17,18,19.30
2010,09,30,17,19,19.20
2010,09,30,17,20,19.10
2010,09,30,17,21,19.00
2010,09,30,17,22,18.90
2010,09,30,17,23,18.80
2010,09,30,17,24,18.60
2010,09,30,17,25,18.50
2010,09,30,17,26,18.50
2010,09,30,17,27,18.40
2010,09,30,17,28,18.40
2010,09,30,17,29,18.30
2010,09,30,17,30,18.30
2010,09,30,17,31,18.30
2010,09,30,17,32,18.30
2010,09,30,17,33,18.30
2010,09,30,17,34,18.20
2010,09,30,17,35,18.20
2010,09,30,17,36,18.20
2010,09,30,17,37,18.10
2010,09,30,17,38,18.10
2010,09,30,17,39,18.00
2010,09,30,17,40,17.90
2010,09,30,17,41,17.90
2010,09,30,17,42,17.90
2010,09,30,17,43,17.80
2010,09,30,17,44,17.80
2010,09,30,17,45,17.80
2010,09,30,17,46,17.80
2010,09,30,17,47,17.70
2010,09,30,17,48,17.70
2010,09,30,17,49,17.70
2010,09,30,17,50,17.60
2010,09,30,17,51,17.60
2010,09,30,17,52,17.60
2010,09,30,17,53,17.50
2010,09,30,17,54,17.50
2010,09,30,17,55,17.50
2010,09,30,17,56,17.40
2010,09,30,17,57,17.40
2010,09,30,17,58,17.40
2010,09,30,17,59,17.30
2010,09,30,18,00,17.30
2010,09,30,18,01,17.30
2010,09,30,18,02,17.30
2010,09,30,18,03,17.30
2010,09,30,18,04,17.20
2010,09,30,18,05,17.20
2010,09,30,18,06,17.20
2010,09,30,18,07,17.10
2010,09,30,18,08,17.10
2010,09,30,18,09,17.10
2010,09,30,18,10,17.00
2010,09,30,18,11,17.00
2010,09,30,18,12,17.00
2010,09,30,18,13,16.90
2010,09,30,18,14,16.90
2010,09,30,18,15,16.80
2010,09,30,18,16,16.80
2010,09,30,18,17,16.70
2010,09,30,18,18,16.70
2010,09,30,18,19,16.70
2010,09,30,18,20,16.60
2010,09,30,18,21,16.60
2010,09,30,18,22,16.50
2010,09,30,18,23,16.50
2010,09,30,18,24,16.50
2010,09,30,18,25,16.40
2010,09,30,18,26,16.40
2010,09,30,18,27,16.40
2010,09,30,18,28,16.40
2010,09,30,18,29,16.30
2010,09,30,18,30,16.30
2010,09,30,18,31,16.30
2010,09,30,18,32,16.30
2010,09,30,18,33,16.30
2010,09,30,18,34,16.30
2010,09,30,18,35,16.30
2010,09,30,18,36,16.20
2010,09,30,18,37,16.20
2010,09,30,18,38,16.20
2010,09,30,18,39,16.20
2010,09,30,18,40,16.20
2010,09,30,18,41,16.20
2010,09,30,18,42,16.10
2010,09,30,18,43,16.10
2010,09,30,18,44,16.10
2010,09,30,18,45,16.10
2010,09,30,18,46,16.10
2010,09,30,18,47,16.10
2010,09,30,18,48,16.10
2010,09,30,18,49,16.00
2010,09,30,18,50,16.00
2010,09,30,18,51,16.00
2010,09,30,18,52,16.00
2010,09,30,18,53,16.00
2010,09,30,18,54,16.00
2010,09,30,18,55,16.00
2010,09,30,18,56,16.00
2010,09,30,18,57,16.00
2010,09,30,18,58,16.00
2010,09,30,18,59,16.00
2010,09,30,19,00,16.00
2010,09,30,19,01,15.90
2010,09,30,19,02,15.90
2010,09,30,19,03,15.80
2010,09,30,19,04,15.80
2010,09,30,19,05,15.70
2010,09,30,19,06,15.70
2010,09,30,19,07,15.60
2010,09,30,19,08,15.50
2010,09,30,19,09,15.50
2010,09,30,19,10,15.40
2010,09,30,19,11,15.40
2010,09,30,19,12,15.30
2010,09,30,19,13,15.30
2010,09,30,19,14,15.30
2010,09,30,19,15,15.20
2010,09,30,19,16,15.10
2010,09,30,19,17,15.00
2010,09,30,19,18,15.00
2010,09,30,19,19,15.00
2010,09,30,19,20,15.00
2010,09,30,19,21,15.00
2010,09,30,19,22,15.00
2010,09,30,19,23,15.00
2010,09,30,19,24,15.00
2010,09,30,19,25,14.90
2010,09,30,19,26,14.90
2010,09,30,19,27,14.80
2010,09,30,19,28,14.80
2010,09,30,19,29,14.80
2010,09,30,19,30,14.70
2010,09,30,19,31,14.70
2010,09,30,19,32,14.70
2010,09,30,19,33,14.70
2010,09,30,19,34,14.60
2010,09,30,19,35,14.60
2010,09,30,19,36,14.60
2010,09,30,19,37,14.50
2010,09,30,19,38,14.50
2010,09,30,19,39,14.50
2010,09,30,19,40,14.40
2010,09,30,19,41,14.40
2010,09,30,19,42,14.30
2010,09,30,19,43,14.30
2010,09,30,19,44,14.30
2010,09,30,19,45,14.20
2010,09,30,19,46,14.20
2010,09,30,19,47,14.20
2010,09,30,19,48,14.10
2010,09,30,19,49,14.10
2010,09,30,19,50,14.10
2010,09,30,19,51,14.10
2010,09,30,19,52,14.10
2010,09,30,19,53,14.10
2010,09,30,19,54,14.10
2010,09,30,19,55,14.10
2010,09,30,19,56,14.10
2010,09,30,19,57,14.10
2010,09,30,19,58,14.10
2010,09,30,19,59,14.10
